Location: STAR School
(35.3054°N, 111.2976°W)
Time: 09:47:51
(UTC-07:00)

Vanguard 3 - All Passes

Search period start: 20 May 2019 00:00
Search period end: 30 May 2019 00:00
Orbit: 508 x 3263 km, 33.3° (Epoch: 19 May)

Date Brightness Start Highest point End Pass type
(mag) Time Alt. Az. Time Alt. Az. Time Alt. Az.
20 May - 00:33:26 10° W 00:44:25 83° S 01:02:53 10° E visible
20 May - 02:45:59 10° W 03:00:20 65° SSW 03:20:01 10° SE visible
20 May - 05:00:53 10° W 05:16:07 36° SW 05:32:43 10° SSE daylight
20 May - 21:09:30 10° SW 21:15:48 48° SSE 21:26:51 10° E visible
20 May - 23:19:48 10° W 23:28:45 81° S 23:44:56 10° E visible
21 May - 01:31:35 10° W 01:43:52 75° SSW 02:03:07 10° ESE visible
21 May - 03:44:53 10° W 03:59:45 48° SSW 04:18:16 10° SE visible
21 May - 06:02:55 10° W 06:14:50 20° SW 06:27:04 10° S daylight
21 May - 19:57:34 10° SSW 20:02:19 27° SE 20:09:31 10° E visible
21 May - 22:06:35 10° WSW 22:13:48 71° SSE 22:27:09 10° E visible
22 May - 00:17:41 10° W 00:27:50 81° S 00:45:28 10° ESE visible
22 May - 02:29:58 10° W 02:43:18 60° SSW 03:02:28 10° SE visible
22 May - 04:44:51 10° W 04:58:51 32° SW 05:14:48 10° SSE visible
22 May - 18:48:15 10° SE 18:49:20 11° SE 18:50:30 10° ESE daylight
22 May - 20:53:50 10° SW 20:59:37 51° SSE 21:09:50 10° E visible
22 May - 23:04:10 10° W 23:12:25 82° S 23:27:35 10° E visible
23 May - 01:15:43 10° W 01:27:05 71° SSW 01:45:36 10° ESE visible
23 May - 03:28:52 10° W 03:42:36 43° SSW 04:00:29 10° SSE visible
23 May - 05:47:44 10° WSW 05:57:41 17° SW 06:08:10 10° S daylight
23 May - 19:41:43 10° SSW 19:46:09 29° SE 19:52:55 10° E daylight
23 May - 21:51:00 10° WSW 21:57:39 74° SSE 22:09:58 10° E visible
24 May - 00:01:58 10° W 00:11:21 78° S 00:28:01 10° ESE visible
24 May - 02:14:03 10° W 02:26:22 55° SSW 02:44:46 10° SE visible
24 May - 04:29:05 10° W 04:41:42 27° SW 04:56:34 10° S visible
24 May - 18:31:22 10° SSE 18:33:09 12° SE 18:35:11 10° ESE daylight
24 May - 20:38:12 10° SW 20:43:33 55° SSE 20:52:54 10° E visible
24 May - 22:48:35 10° W 22:56:11 81° S 23:10:16 10° E visible
25 May - 00:59:57 10° W 01:10:25 66° SSW 01:27:59 10° ESE visible
25 May - 03:13:02 10° W 03:25:34 38° SSW 03:42:29 10° SSE visible
25 May - 05:33:31 10° WSW 05:40:39 13° SW 05:48:14 10° SSW daylight
25 May - 19:25:56 10° SSW 19:30:06 31° SSE 19:36:24 10° E daylight
25 May - 21:35:29 10° WSW 21:41:36 76° S 21:52:52 10° E visible
25 May - 23:46:20 10° W 23:54:57 75° S 00:10:34 10° ESE visible
26 May - 01:58:15 10° W 02:09:33 49° SSW 02:26:54 10° SE visible
26 May - 04:13:39 10° W 04:24:41 23° SW 04:37:55 10° S visible
26 May - 18:14:54 10° S 18:17:04 13° SE 18:19:34 10° ESE daylight
26 May - 20:22:39 10° WSW 20:27:36 58° SSE 20:36:06 10° E visible
26 May - 22:33:03 10° W 22:40:01 80° S 22:53:01 10° E visible
27 May - 00:44:15 10° W 00:53:52 60° SSW 01:10:17 10° SE visible
27 May - 02:57:23 10° W 03:08:42 32° SSW 03:24:12 10° SSE visible
27 May - 19:10:13 10° SW 19:14:08 34° SSE 19:19:58 10° E daylight
27 May - 21:19:58 10° W 21:25:37 77° S 21:35:52 10° E visible
27 May - 23:30:44 10° W 23:38:39 70° SSW 23:53:06 10° ESE visible
28 May - 01:42:35 10° W 01:52:52 43° SSW 02:08:52 10° SE visible
28 May - 03:58:43 10° WSW 04:07:50 18° SW 04:18:44 10° S visible
28 May - 17:58:38 10° S 18:01:03 15° SE 18:03:52 10° ESE daylight
28 May - 20:07:07 10° WSW 20:11:43 62° SSE 20:19:25 10° E visible
28 May - 22:17:31 10° W 22:23:57 77° S 22:35:50 10° ESE visible
29 May - 00:28:37 10° W 00:37:25 53° SSW 00:52:31 10° SE visible
29 May - 02:41:58 10° W 02:51:58 27° SSW 03:05:39 10° SSE visible
29 May - 18:54:30 10° SW 18:58:16 37° SSE 19:03:39 10° E daylight
29 May - 21:04:30 10° W 21:09:43 77° S 21:18:59 10° E visible
29 May - 23:15:11 10° W 23:22:26 63° SSW 23:35:39 10° ESE visible
